iso_date,epoch_date,Year,Hour,Min,DOY,POS_DOY,Lat,Lon,BP,Ts,Ta,has_bp,has_ts,has_ta,BuoyID,Buoy_Type,Buoy_Owner,Logistics,Hemisphere
2021-04-30T21:00:00Z,1619816400,2021,21,0,120.875,120.875,71.32542,-156.6746,1008.9,-4.91,-999.0,yes,yes,no,300534061803420,IcePelican,USIABP,Utqiagvik,North
2021-04-30T22:00:02Z,1619820003,2021,22,0,120.9167,120.9167,71.32547,-156.6748,1009.2,-4.3,-999.0,yes,yes,no,300534061803420,IcePelican,USIABP,Utqiagvik,North
2021-04-30T22:59:57Z,1619823597,2021,23,0,120.9583,120.9583,71.32545,-156.6748,1009.7,-3.93,-999.0,yes,yes,no,300534061803420,IcePelican,USIABP,Utqiagvik,North
2021-05-01T00:00:00Z,1619827200,2021,0,0,121.0,121.0,71.32545,-156.6747,1009.9,-3.28,-999.0,yes,yes,no,300534061803420,IcePelican,USIABP,Utqiagvik,North
2021-05-01T01:00:02Z,1619830803,2021,1,0,121.0417,121.0417,71.32545,-156.6747,1010.2,-3.6,-999.0,yes,yes,no,300534061803420,IcePelican,USIABP,Utqiagvik,North
2021-05-01T01:59:57Z,1619834397,2021,2,0,121.0833,121.0833,71.32547,-156.6747,1010.6,-2.21,-999.0,yes,yes,no,300534061803420,IcePelican,USIABP,Utqiagvik,North
2021-05-01T03:00:00Z,1619838000,2021,3,0,121.125,121.125,71.32547,-156.6747,1010.9,-3.18,-999.0,yes,yes,no,300534061803420,IcePelican,USIABP,Utqiagvik,North
2021-05-01T04:00:02Z,1619841603,2021,4,0,121.1667,121.1667,71.32545,-156.6747,1011.1,-4.23,-999.0,yes,yes,no,300534061803420,IcePelican,USIABP,Utqiagvik,North
2021-05-01T06:00:00Z,1619848800,2021,6,0,121.25,121.25,71.32542,-156.6749,1011.7,-5.85,-999.0,yes,yes,no,300534061803420,IcePelican,USIABP,Utqiagvik,North
2021-05-01T07:00:02Z,1619852403,2021,7,0,121.2917,121.2917,71.32542,-156.6747,1012.0,-6.02,-999.0,yes,yes,no,300534061803420,IcePelican,USIABP,Utqiagvik,North
2021-05-01T07:59:57Z,1619855997,2021,8,0,121.3333,121.3333,71.32549,-156.6747,1012.4,-6.2,-999.0,yes,yes,no,300534061803420,IcePelican,USIABP,Utqiagvik,North
2021-05-01T09:00:00Z,1619859600,2021,9,0,121.375,121.375,71.32552,-156.6747,1012.7,-6.39,-999.0,yes,yes,no,300534061803420,IcePelican,USIABP,Utqiagvik,North
2021-05-01T10:00:02Z,1619863203,2021,10,0,121.4167,121.4167,71.32545,-156.6747,1013.1,-6.43,-999.0,yes,yes,no,300534061803420,IcePelican,USIABP,Utqiagvik,North
2021-05-01T10:59:57Z,1619866797,2021,11,0,121.4583,121.4583,71.32547,-156.6748,1013.5,-6.43,-999.0,yes,yes,no,300534061803420,IcePelican,USIABP,Utqiagvik,North
2021-05-01T12:00:00Z,1619870400,2021,12,0,121.5,121.5,71.32547,-156.6747,1013.7,-6.51,-999.0,yes,yes,no,300534061803420,IcePelican,USIABP,Utqiagvik,North
2021-05-01T13:00:02Z,1619874003,2021,13,0,121.5417,121.5417,71.32545,-156.6748,1014.0,-6.62,-999.0,yes,yes,no,300534061803420,IcePelican,USIABP,Utqiagvik,North
2021-05-01T13:59:57Z,1619877597,2021,14,0,121.5833,121.5833,71.32547,-156.6747,1014.3,-6.53,-999.0,yes,yes,no,300534061803420,IcePelican,USIABP,Utqiagvik,North
2021-05-01T15:00:00Z,1619881200,2021,15,0,121.625,121.625,71.32549,-156.6748,1014.7,-6.44,-999.0,yes,yes,no,300534061803420,IcePelican,USIABP,Utqiagvik,North
2021-05-01T16:00:02Z,1619884803,2021,16,0,121.6667,121.6667,71.32547,-156.6748,1015.1,-6.13,-999.0,yes,yes,no,300534061803420,IcePelican,USIABP,Utqiagvik,North
2021-05-01T16:59:57Z,1619888397,2021,17,0,121.7083,121.7083,71.32547,-156.6747,1015.2,-6.16,-999.0,yes,yes,no,300534061803420,IcePelican,USIABP,Utqiagvik,North
2021-05-01T18:00:00Z,1619892000,2021,18,0,121.75,121.75,71.32549,-156.6747,1015.7,-5.8,-999.0,yes,yes,no,300534061803420,IcePelican,USIABP,Utqiagvik,North
2021-05-01T19:00:02Z,1619895603,2021,19,0,121.7917,121.7917,71.32543,-156.6747,1016.1,-5.01,-999.0,yes,yes,no,300534061803420,IcePelican,USIABP,Utqiagvik,North
2021-05-01T19:59:57Z,1619899197,2021,20,0,121.8333,121.8333,71.32549,-156.6749,1016.5,-5.24,-999.0,yes,yes,no,300534061803420,IcePelican,USIABP,Utqiagvik,North
2021-05-01T21:00:00Z,1619902800,2021,21,0,121.875,121.875,71.32549,-156.6748,1017.0,-5.04,-999.0,yes,yes,no,300534061803420,IcePelican,USIABP,Utqiagvik,North
2021-05-01T22:59:57Z,1619909997,2021,23,0,121.9583,121.9583,71.32547,-156.6747,1017.8,-5.13,-999.0,yes,yes,no,300534061803420,IcePelican,USIABP,Utqiagvik,North
2021-05-02T00:00:00Z,1619913600,2021,0,0,122.0,122.0,71.32545,-156.6747,1018.1,-4.74,-999.0,yes,yes,no,300534061803420,IcePelican,USIABP,Utqiagvik,North
2021-05-02T01:00:02Z,1619917203,2021,1,0,122.0417,122.0417,71.32545,-156.6748,1018.4,-4.79,-999.0,yes,yes,no,300534061803420,IcePelican,USIABP,Utqiagvik,North
2021-05-02T01:59:57Z,1619920797,2021,2,0,122.0833,122.0833,71.32545,-156.6747,1018.6,-5.0,-999.0,yes,yes,no,300534061803420,IcePelican,USIABP,Utqiagvik,North
2021-05-02T03:00:00Z,1619924400,2021,3,0,122.125,122.125,71.32549,-156.6748,1019.1,-5.69,-999.0,yes,yes,no,300534061803420,IcePelican,USIABP,Utqiagvik,North
2021-05-02T04:00:02Z,1619928003,2021,4,0,122.1667,122.1667,71.32545,-156.6747,1019.5,-6.14,-999.0,yes,yes,no,300534061803420,IcePelican,USIABP,Utqiagvik,North
2021-05-02T04:59:57Z,1619931597,2021,5,0,122.2083,122.2083,71.32545,-156.6747,1019.8,-6.89,-999.0,yes,yes,no,300534061803420,IcePelican,USIABP,Utqiagvik,North
2021-05-02T06:00:00Z,1619935200,2021,6,0,122.25,122.25,71.32549,-156.6747,1020.2,-7.7,-999.0,yes,yes,no,300534061803420,IcePelican,USIABP,Utqiagvik,North
2021-05-02T07:00:02Z,1619938803,2021,7,0,122.2917,122.2917,71.32545,-156.6747,1020.6,-8.23,-999.0,yes,yes,no,300534061803420,IcePelican,USIABP,Utqiagvik,North
2021-05-02T07:59:57Z,1619942397,2021,8,0,122.3333,122.3333,71.32547,-156.6747,1021.0,-8.52,-999.0,yes,yes,no,300534061803420,IcePelican,USIABP,Utqiagvik,North
2021-05-02T09:00:00Z,1619946000,2021,9,0,122.375,122.375,71.32549,-156.6747,1021.5,-8.5,-999.0,yes,yes,no,300534061803420,IcePelican,USIABP,Utqiagvik,North
2021-05-02T10:00:02Z,1619949603,2021,10,0,122.4167,122.4167,71.32533,-156.6747,1021.9,-8.57,-999.0,yes,yes,no,300534061803420,IcePelican,USIABP,Utqiagvik,North
2021-05-02T10:59:57Z,1619953197,2021,11,0,122.4583,122.4583,71.32545,-156.6747,1022.1,-8.88,-999.0,yes,yes,no,300534061803420,IcePelican,USIABP,Utqiagvik,North
2021-05-02T13:00:02Z,1619960403,2021,13,0,122.5417,122.5417,71.32552,-156.6749,1022.6,-10.51,-999.0,yes,yes,no,300534061803420,IcePelican,USIABP,Utqiagvik,North
2021-05-02T15:00:00Z,1619967600,2021,15,0,122.625,122.625,71.32549,-156.6748,1023.2,-11.16,-999.0,yes,yes,no,300534061803420,IcePelican,USIABP,Utqiagvik,North
2021-05-02T16:00:02Z,1619971203,2021,16,0,122.6667,122.6667,71.32545,-156.6749,1023.5,-10.77,-999.0,yes,yes,no,300534061803420,IcePelican,USIABP,Utqiagvik,North
2021-05-02T16:59:57Z,1619974797,2021,17,0,122.7083,122.7083,71.32547,-156.6747,1023.6,-9.54,-999.0,yes,yes,no,300534061803420,IcePelican,USIABP,Utqiagvik,North
2021-05-02T18:00:00Z,1619978400,2021,18,0,122.75,122.75,71.32545,-156.6747,1023.9,-8.62,-999.0,yes,yes,no,300534061803420,IcePelican,USIABP,Utqiagvik,North
2021-05-02T19:00:02Z,1619982003,2021,19,0,122.7917,122.7917,71.32547,-156.6747,1024.2,-7.71,-999.0,yes,yes,no,300534061803420,IcePelican,USIABP,Utqiagvik,North
2021-05-02T19:59:57Z,1619985597,2021,20,0,122.8333,122.8333,71.32545,-156.6748,1024.2,-7.14,-999.0,yes,yes,no,300534061803420,IcePelican,USIABP,Utqiagvik,North
2021-05-02T21:00:00Z,1619989200,2021,21,0,122.875,122.875,71.32542,-156.6747,1024.4,-6.64,-999.0,yes,yes,no,300534061803420,IcePelican,USIABP,Utqiagvik,North
2021-05-02T22:00:02Z,1619992803,2021,22,0,122.9167,122.9167,71.32547,-156.6748,1024.6,-6.06,-999.0,yes,yes,no,300534061803420,IcePelican,USIABP,Utqiagvik,North
2021-05-02T22:59:57Z,1619996397,2021,23,0,122.9583,122.9583,71.32545,-156.6747,1024.7,-5.92,-999.0,yes,yes,no,300534061803420,IcePelican,USIABP,Utqiagvik,North
2021-05-03T00:00:00Z,1620000000,2021,0,0,123.0,123.0,71.32547,-156.6747,1024.7,-5.5,-999.0,yes,yes,no,300534061803420,IcePelican,USIABP,Utqiagvik,North
2021-05-03T01:00:02Z,1620003603,2021,1,0,123.0417,123.0417,71.32549,-156.6747,1024.7,-5.13,-999.0,yes,yes,no,300534061803420,IcePelican,USIABP,Utqiagvik,North
2021-05-03T01:59:57Z,1620007197,2021,2,0,123.0833,123.0833,71.32551,-156.6747,1024.7,-5.35,-999.0,yes,yes,no,300534061803420,IcePelican,USIABP,Utqiagvik,North
2021-05-03T03:00:00Z,1620010800,2021,3,0,123.125,123.125,71.32545,-156.6748,1024.7,-5.49,-999.0,yes,yes,no,300534061803420,IcePelican,USIABP,Utqiagvik,North
2021-05-03T04:59:57Z,1620017997,2021,5,0,123.2083,123.2083,71.32555,-156.675,1024.8,-6.93,-999.0,yes,yes,no,300534061803420,IcePelican,USIABP,Utqiagvik,North
2021-05-03T06:00:00Z,1620021600,2021,6,0,123.25,123.25,71.32547,-156.6747,1024.8,-7.73,-999.0,yes,yes,no,300534061803420,IcePelican,USIABP,Utqiagvik,North
2021-05-03T07:00:02Z,1620025203,2021,7,0,123.2917,123.2917,71.32549,-156.6747,1024.9,-8.16,-999.0,yes,yes,no,300534061803420,IcePelican,USIABP,Utqiagvik,North
2021-05-03T07:59:57Z,1620028797,2021,8,0,123.3333,123.3333,71.32547,-156.6747,1024.9,-8.74,-999.0,yes,yes,no,300534061803420,IcePelican,USIABP,Utqiagvik,North
2021-05-03T09:00:00Z,1620032400,2021,9,0,123.375,123.375,71.32549,-156.6747,1025.0,-9.01,-999.0,yes,yes,no,300534061803420,IcePelican,USIABP,Utqiagvik,North
2021-05-03T10:00:02Z,1620036003,2021,10,0,123.4167,123.4167,71.32547,-156.6747,1025.1,-9.15,-999.0,yes,yes,no,300534061803420,IcePelican,USIABP,Utqiagvik,North
2021-05-03T10:59:57Z,1620039597,2021,11,0,123.4583,123.4583,71.32545,-156.6747,1024.9,-9.15,-999.0,yes,yes,no,300534061803420,IcePelican,USIABP,Utqiagvik,North
2021-05-03T12:00:00Z,1620043200,2021,12,0,123.5,123.5,71.32545,-156.6747,1025.2,-9.37,-999.0,yes,yes,no,300534061803420,IcePelican,USIABP,Utqiagvik,North
2021-05-03T13:00:02Z,1620046803,2021,13,0,123.5417,123.5417,71.32547,-156.6748,1025.2,-9.39,-999.0,yes,yes,no,300534061803420,IcePelican,USIABP,Utqiagvik,North
2021-05-03T13:59:57Z,1620050397,2021,14,0,123.5833,123.5833,71.32547,-156.6747,1025.1,-9.38,-999.0,yes,yes,no,300534061803420,IcePelican,USIABP,Utqiagvik,North
2021-05-03T15:00:00Z,1620054000,2021,15,0,123.625,123.625,71.32547,-156.6747,1025.1,-8.69,-999.0,yes,yes,no,300534061803420,IcePelican,USIABP,Utqiagvik,North
2021-05-03T16:00:02Z,1620057603,2021,16,0,123.6667,123.6667,71.32547,-156.6747,1025.2,-8.5,-999.0,yes,yes,no,300534061803420,IcePelican,USIABP,Utqiagvik,North
2021-05-03T16:59:57Z,1620061197,2021,17,0,123.7083,123.7083,71.32545,-156.6747,1025.1,-8.05,-999.0,yes,yes,no,300534061803420,IcePelican,USIABP,Utqiagvik,North
2021-05-03T18:00:00Z,1620064800,2021,18,0,123.75,123.75,71.32547,-156.6747,1025.1,-7.53,-999.0,yes,yes,no,300534061803420,IcePelican,USIABP,Utqiagvik,North
2021-05-03T19:00:02Z,1620068403,2021,19,0,123.7917,123.7917,71.32545,-156.6747,1025.0,-7.01,-999.0,yes,yes,no,300534061803420,IcePelican,USIABP,Utqiagvik,North
2021-05-03T19:59:57Z,1620071997,2021,20,0,123.8333,123.8333,71.32547,-156.6747,1025.2,-6.62,-999.0,yes,yes,no,300534061803420,IcePelican,USIABP,Utqiagvik,North
2021-05-03T21:00:00Z,1620075600,2021,21,0,123.875,123.875,71.32545,-156.6747,1025.2,-5.72,-999.0,yes,yes,no,300534061803420,IcePelican,USIABP,Utqiagvik,North
2021-05-03T22:00:02Z,1620079203,2021,22,0,123.9167,123.9167,71.32549,-156.6747,1025.3,-5.67,-999.0,yes,yes,no,300534061803420,IcePelican,USIABP,Utqiagvik,North
2021-05-03T22:59:57Z,1620082797,2021,23,0,123.9583,123.9583,71.32547,-156.6748,1025.2,-5.07,-999.0,yes,yes,no,300534061803420,IcePelican,USIABP,Utqiagvik,North
2021-05-04T00:00:00Z,1620086400,2021,0,0,124.0,124.0,71.32547,-156.6747,1025.1,-4.9,-999.0,yes,yes,no,300534061803420,IcePelican,USIABP,Utqiagvik,North
2021-05-04T01:00:02Z,1620090003,2021,1,0,124.0417,124.0417,71.32545,-156.6748,1024.8,-5.33,-999.0,yes,yes,no,300534061803420,IcePelican,USIABP,Utqiagvik,North
2021-05-04T01:59:57Z,1620093597,2021,2,0,124.0833,124.0833,71.32545,-156.6747,1024.8,-5.65,-999.0,yes,yes,no,300534061803420,IcePelican,USIABP,Utqiagvik,North
2021-05-04T04:00:02Z,1620100803,2021,4,0,124.1667,124.1667,71.32547,-156.6749,1025.0,-7.17,-999.0,yes,yes,no,300534061803420,IcePelican,USIABP,Utqiagvik,North
2021-05-04T07:00:02Z,1620111603,2021,7,0,124.2917,124.2917,71.32547,-156.6747,1024.9,-8.41,-999.0,yes,yes,no,300534061803420,IcePelican,USIABP,Utqiagvik,North
2021-05-04T07:59:57Z,1620115197,2021,8,0,124.3333,124.3333,71.32549,-156.6748,1025.0,-8.74,-999.0,yes,yes,no,300534061803420,IcePelican,USIABP,Utqiagvik,North
2021-05-04T09:00:00Z,1620118800,2021,9,0,124.375,124.375,71.32547,-156.6747,1025.0,-9.07,-999.0,yes,yes,no,300534061803420,IcePelican,USIABP,Utqiagvik,North
2021-05-04T10:00:02Z,1620122403,2021,10,0,124.4167,124.4167,71.32545,-156.6747,1025.0,-9.21,-999.0,yes,yes,no,300534061803420,IcePelican,USIABP,Utqiagvik,North
2021-05-04T10:59:57Z,1620125997,2021,11,0,124.4583,124.4583,71.32545,-156.6747,1025.0,-9.29,-999.0,yes,yes,no,300534061803420,IcePelican,USIABP,Utqiagvik,North
2021-05-04T13:00:02Z,1620133203,2021,13,0,124.5417,124.5417,71.32551,-156.6749,1025.3,-9.69,-999.0,yes,yes,no,300534061803420,IcePelican,USIABP,Utqiagvik,North
2021-05-04T13:59:57Z,1620136797,2021,14,0,124.5833,124.5833,71.32545,-156.6747,1025.4,-9.72,-999.0,yes,yes,no,300534061803420,IcePelican,USIABP,Utqiagvik,North
2021-05-04T15:00:00Z,1620140400,2021,15,0,124.625,124.625,71.32547,-156.6748,1025.4,-9.54,-999.0,yes,yes,no,300534061803420,IcePelican,USIABP,Utqiagvik,North
2021-05-04T16:00:02Z,1620144003,2021,16,0,124.6667,124.6667,71.32547,-156.6747,1025.5,-9.2,-999.0,yes,yes,no,300534061803420,IcePelican,USIABP,Utqiagvik,North
2021-05-04T16:59:57Z,1620147597,2021,17,0,124.7083,124.7083,71.32537,-156.6749,1025.7,-8.41,-999.0,yes,yes,no,300534061803420,IcePelican,USIABP,Utqiagvik,North
2021-05-04T18:00:00Z,1620151200,2021,18,0,124.75,124.75,71.32539,-156.675,1025.8,-7.57,-999.0,yes,yes,no,300534061803420,IcePelican,USIABP,Utqiagvik,North
2021-05-04T19:00:02Z,1620154803,2021,19,0,124.7917,124.7917,71.33343,-156.6575,1025.9,-7.09,-999.0,yes,yes,no,300534061803420,IcePelican,USIABP,Utqiagvik,North
2021-05-04T19:59:57Z,1620158397,2021,20,0,124.8333,124.8333,71.32471,-156.6681,1025.7,-5.47,-999.0,yes,yes,no,300534061803420,IcePelican,USIABP,Utqiagvik,North
2021-05-04T21:00:00Z,1620162000,2021,21,0,124.875,124.875,71.33344,-156.6573,1026.1,-5.03,-999.0,yes,yes,no,300534061803420,IcePelican,USIABP,Utqiagvik,North
2021-05-04T22:00:02Z,1620165603,2021,22,0,124.9167,124.9167,71.3335,-156.6574,1026.2,-3.04,-999.0,yes,yes,no,300534061803420,IcePelican,USIABP,Utqiagvik,North
2021-05-04T22:59:57Z,1620169197,2021,23,0,124.9583,124.9583,71.3335,-156.6573,1026.4,-2.49,-999.0,yes,yes,no,300534061803420,IcePelican,USIABP,Utqiagvik,North
2021-05-05T00:00:00Z,1620172800,2021,0,0,125.0,125.0,71.3335,-156.6573,1026.4,-2.18,-999.0,yes,yes,no,300534061803420,IcePelican,USIABP,Utqiagvik,North
2021-05-05T01:00:02Z,1620176403,2021,1,0,125.0417,125.0417,71.32314,-156.6149,1025.9,-2.07,-999.0,yes,yes,no,300534061803420,IcePelican,USIABP,Utqiagvik,North
2021-05-05T01:59:57Z,1620179997,2021,2,0,125.0833,125.0833,71.32299,-156.6146,1026.3,-5.36,-999.0,yes,yes,no,300534061803420,IcePelican,USIABP,Utqiagvik,North
2021-05-05T03:00:00Z,1620183600,2021,3,0,125.125,125.125,71.32298,-156.6146,1026.4,-6.07,-999.0,yes,yes,no,300534061803420,IcePelican,USIABP,Utqiagvik,North
2021-05-05T04:00:02Z,1620187203,2021,4,0,125.1667,125.1667,71.32298,-156.6145,1026.5,-6.21,-999.0,yes,yes,no,300534061803420,IcePelican,USIABP,Utqiagvik,North
2021-05-05T04:59:57Z,1620190797,2021,5,0,125.2083,125.2083,71.32298,-156.6145,1026.7,-8.03,-999.0,yes,yes,no,300534061803420,IcePelican,USIABP,Utqiagvik,North
2021-05-05T06:00:00Z,1620194400,2021,6,0,125.25,125.25,71.32305,-156.6147,1027.0,-8.26,-999.0,yes,yes,no,300534061803420,IcePelican,USIABP,Utqiagvik,North
2021-05-05T07:00:02Z,1620198003,2021,7,0,125.2917,125.2917,71.32298,-156.6145,1027.3,-9.18,-999.0,yes,yes,no,300534061803420,IcePelican,USIABP,Utqiagvik,North
2021-05-05T07:59:57Z,1620201597,2021,8,0,125.3333,125.3333,71.32298,-156.6145,1027.6,-9.84,-999.0,yes,yes,no,300534061803420,IcePelican,USIABP,Utqiagvik,North
2021-05-05T10:00:02Z,1620208803,2021,10,0,125.4167,125.4167,71.32298,-156.6148,1028.0,-10.61,-999.0,yes,yes,no,300534061803420,IcePelican,USIABP,Utqiagvik,North
2021-05-05T10:59:57Z,1620212397,2021,11,0,125.4583,125.4583,71.32297,-156.6145,1028.4,-10.7,-999.0,yes,yes,no,300534061803420,IcePelican,USIABP,Utqiagvik,North
2021-05-05T13:00:02Z,1620219603,2021,13,0,125.5417,125.5417,71.32299,-156.6148,1028.5,-10.94,-999.0,yes,yes,no,300534061803420,IcePelican,USIABP,Utqiagvik,North
2021-05-05T13:59:57Z,1620223197,2021,14,0,125.5833,125.5833,71.32301,-156.6147,1028.7,-10.88,-999.0,yes,yes,no,300534061803420,IcePelican,USIABP,Utqiagvik,North
2021-05-05T15:00:00Z,1620226800,2021,15,0,125.625,125.625,71.32301,-156.6146,1028.9,-10.78,-999.0,yes,yes,no,300534061803420,IcePelican,USIABP,Utqiagvik,North
2021-05-05T16:59:57Z,1620233997,2021,17,0,125.7083,125.7083,71.32298,-156.6145,1029.2,-10.17,-999.0,yes,yes,no,300534061803420,IcePelican,USIABP,Utqiagvik,North
2021-05-05T18:00:00Z,1620237600,2021,18,0,125.75,125.75,71.32298,-156.6145,1029.4,-9.67,-999.0,yes,yes,no,300534061803420,IcePelican,USIABP,Utqiagvik,North
2021-05-05T19:00:02Z,1620241203,2021,19,0,125.7917,125.7917,71.32301,-156.6145,1029.5,-9.39,-999.0,yes,yes,no,300534061803420,IcePelican,USIABP,Utqiagvik,North
2021-05-05T19:59:57Z,1620244797,2021,20,0,125.8333,125.8333,71.32298,-156.6146,1029.8,-9.14,-999.0,yes,yes,no,300534061803420,IcePelican,USIABP,Utqiagvik,North
2021-05-05T21:00:00Z,1620248400,2021,21,0,125.875,125.875,71.32298,-156.6145,1030.0,-9.03,-999.0,yes,yes,no,300534061803420,IcePelican,USIABP,Utqiagvik,North
2021-05-05T22:00:02Z,1620252003,2021,22,0,125.9167,125.9167,71.32299,-156.6145,1030.0,-9.17,-999.0,yes,yes,no,300534061803420,IcePelican,USIABP,Utqiagvik,North
2021-05-05T22:59:57Z,1620255597,2021,23,0,125.9583,125.9583,71.32298,-156.6146,1029.9,-9.28,-999.0,yes,yes,no,300534061803420,IcePelican,USIABP,Utqiagvik,North
2021-05-06T00:00:00Z,1620259200,2021,0,0,126.0,126.0,71.32297,-156.6145,1029.9,-8.6,-999.0,yes,yes,no,300534061803420,IcePelican,USIABP,Utqiagvik,North
2021-05-06T01:00:02Z,1620262803,2021,1,0,126.0417,126.0417,71.32297,-156.6146,1029.8,-8.81,-999.0,yes,yes,no,300534061803420,IcePelican,USIABP,Utqiagvik,North
2021-05-06T01:59:57Z,1620266397,2021,2,0,126.0833,126.0833,71.32298,-156.6146,1029.8,-8.62,-999.0,yes,yes,no,300534061803420,IcePelican,USIABP,Utqiagvik,North
2021-05-06T03:00:00Z,1620270000,2021,3,0,126.125,126.125,71.32298,-156.6145,1029.8,-8.62,-999.0,yes,yes,no,300534061803420,IcePelican,USIABP,Utqiagvik,North
2021-05-06T04:00:02Z,1620273603,2021,4,0,126.1667,126.1667,71.32298,-156.6145,1029.8,-9.27,-999.0,yes,yes,no,300534061803420,IcePelican,USIABP,Utqiagvik,North
2021-05-06T04:59:57Z,1620277197,2021,5,0,126.2083,126.2083,71.32298,-156.6145,1029.6,-9.47,-999.0,yes,yes,no,300534061803420,IcePelican,USIABP,Utqiagvik,North
2021-05-06T06:00:00Z,1620280800,2021,6,0,126.25,126.25,71.32298,-156.6145,1030.0,-9.72,-999.0,yes,yes,no,300534061803420,IcePelican,USIABP,Utqiagvik,North
2021-05-06T07:00:02Z,1620284403,2021,7,0,126.2917,126.2917,71.32299,-156.6145,1030.0,-10.08,-999.0,yes,yes,no,300534061803420,IcePelican,USIABP,Utqiagvik,North
2021-05-06T07:59:57Z,1620287997,2021,8,0,126.3333,126.3333,71.32297,-156.6146,1030.0,-10.58,-999.0,yes,yes,no,300534061803420,IcePelican,USIABP,Utqiagvik,North
2021-05-06T09:00:00Z,1620291600,2021,9,0,126.375,126.375,71.32298,-156.6145,1030.0,-11.18,-999.0,yes,yes,no,300534061803420,IcePelican,USIABP,Utqiagvik,North
2021-05-06T10:00:02Z,1620295203,2021,10,0,126.4167,126.4167,71.32299,-156.6145,1029.9,-12.76,-999.0,yes,yes,no,300534061803420,IcePelican,USIABP,Utqiagvik,North
2021-05-06T10:59:57Z,1620298797,2021,11,0,126.4583,126.4583,71.32303,-156.6145,1029.9,-14.93,-999.0,yes,yes,no,300534061803420,IcePelican,USIABP,Utqiagvik,North
2021-05-06T12:00:00Z,1620302400,2021,12,0,126.5,126.5,71.32295,-156.6145,1029.6,-15.84,-999.0,yes,yes,no,300534061803420,IcePelican,USIABP,Utqiagvik,North
2021-05-06T13:00:02Z,1620306003,2021,13,0,126.5417,126.5417,71.32295,-156.6147,1029.7,-16.3,-999.0,yes,yes,no,300534061803420,IcePelican,USIABP,Utqiagvik,North
2021-05-06T13:59:57Z,1620309597,2021,14,0,126.5833,126.5833,71.32298,-156.6145,1029.6,-16.99,-999.0,yes,yes,no,300534061803420,IcePelican,USIABP,Utqiagvik,North
2021-05-06T15:00:00Z,1620313200,2021,15,0,126.625,126.625,71.32307,-156.6146,1029.6,-16.96,-999.0,yes,yes,no,300534061803420,IcePelican,USIABP,Utqiagvik,North
2021-05-06T16:00:02Z,1620316803,2021,16,0,126.6667,126.6667,71.32297,-156.6145,1029.7,-15.79,-999.0,yes,yes,no,300534061803420,IcePelican,USIABP,Utqiagvik,North
2021-05-06T16:59:57Z,1620320397,2021,17,0,126.7083,126.7083,71.32299,-156.6145,1029.5,-14.39,-999.0,yes,yes,no,300534061803420,IcePelican,USIABP,Utqiagvik,North
2021-05-06T18:00:00Z,1620324000,2021,18,0,126.75,126.75,71.32298,-156.6145,1029.3,-11.72,-999.0,yes,yes,no,300534061803420,IcePelican,USIABP,Utqiagvik,North
2021-05-06T19:00:02Z,1620327603,2021,19,0,126.7917,126.7917,71.32299,-156.6145,1029.1,-11.06,-999.0,yes,yes,no,300534061803420,IcePelican,USIABP,Utqiagvik,North
2021-05-06T19:59:57Z,1620331197,2021,20,0,126.8333,126.8333,71.32298,-156.6146,1028.9,-10.51,-999.0,yes,yes,no,300534061803420,IcePelican,USIABP,Utqiagvik,North
2021-05-06T21:00:00Z,1620334800,2021,21,0,126.875,126.875,71.32299,-156.6145,1028.6,-10.2,-999.0,yes,yes,no,300534061803420,IcePelican,USIABP,Utqiagvik,North
2021-05-06T22:00:02Z,1620338403,2021,22,0,126.9167,126.9167,71.32297,-156.6146,1028.4,-9.48,-999.0,yes,yes,no,300534061803420,IcePelican,USIABP,Utqiagvik,North
2021-05-06T22:59:57Z,1620341997,2021,23,0,126.9583,126.9583,71.32298,-156.6146,1028.1,-9.13,-999.0,yes,yes,no,300534061803420,IcePelican,USIABP,Utqiagvik,North
2021-05-07T00:00:00Z,1620345600,2021,0,0,127.0,127.0,71.32299,-156.6145,1027.9,-9.38,-999.0,yes,yes,no,300534061803420,IcePelican,USIABP,Utqiagvik,North
2021-05-07T01:00:02Z,1620349203,2021,1,0,127.0417,127.0417,71.32297,-156.6145,1027.7,-9.15,-999.0,yes,yes,no,300534061803420,IcePelican,USIABP,Utqiagvik,North
2021-05-07T01:59:57Z,1620352797,2021,2,0,127.0833,127.0833,71.32298,-156.6146,1027.4,-9.07,-999.0,yes,yes,no,300534061803420,IcePelican,USIABP,Utqiagvik,North
2021-05-07T03:00:00Z,1620356400,2021,3,0,127.125,127.125,71.32298,-156.6145,1027.1,-8.88,-999.0,yes,yes,no,300534061803420,IcePelican,USIABP,Utqiagvik,North
2021-05-07T04:00:02Z,1620360003,2021,4,0,127.1667,127.1667,71.32298,-156.6145,1026.9,-8.69,-999.0,yes,yes,no,300534061803420,IcePelican,USIABP,Utqiagvik,North
2021-05-07T04:59:57Z,1620363597,2021,5,0,127.2083,127.2083,71.32299,-156.6145,1026.9,-9.1,-999.0,yes,yes,no,300534061803420,IcePelican,USIABP,Utqiagvik,North
2021-05-07T06:00:00Z,1620367200,2021,6,0,127.25,127.25,71.32297,-156.6145,1026.6,-9.6,-999.0,yes,yes,no,300534061803420,IcePelican,USIABP,Utqiagvik,North
2021-05-07T07:00:02Z,1620370803,2021,7,0,127.2917,127.2917,71.32299,-156.6145,1026.6,-9.98,-999.0,yes,yes,no,300534061803420,IcePelican,USIABP,Utqiagvik,North
2021-05-07T07:59:57Z,1620374397,2021,8,0,127.3333,127.3333,71.32301,-156.6145,1026.4,-10.17,-999.0,yes,yes,no,300534061803420,IcePelican,USIABP,Utqiagvik,North
2021-05-07T09:00:00Z,1620378000,2021,9,0,127.375,127.375,71.32298,-156.6145,1026.4,-10.3,-999.0,yes,yes,no,300534061803420,IcePelican,USIABP,Utqiagvik,North
2021-05-07T10:00:02Z,1620381603,2021,10,0,127.4167,127.4167,71.32301,-156.6147,1026.4,-10.62,-999.0,yes,yes,no,300534061803420,IcePelican,USIABP,Utqiagvik,North
2021-05-07T13:00:02Z,1620392403,2021,13,0,127.5417,127.5417,71.32294,-156.6148,1025.7,-12.19,-999.0,yes,yes,no,300534061803420,IcePelican,USIABP,Utqiagvik,North
2021-05-07T13:59:57Z,1620395997,2021,14,0,127.5833,127.5833,71.32301,-156.6146,1025.6,-12.84,-999.0,yes,yes,no,300534061803420,IcePelican,USIABP,Utqiagvik,North
2021-05-07T16:00:02Z,1620403203,2021,16,0,127.6667,127.6667,71.32298,-156.6146,1025.5,-12.52,-999.0,yes,yes,no,300534061803420,IcePelican,USIABP,Utqiagvik,North
2021-05-07T16:59:57Z,1620406797,2021,17,0,127.7083,127.7083,71.32298,-156.6146,1025.6,-11.35,-999.0,yes,yes,no,300534061803420,IcePelican,USIABP,Utqiagvik,North